TEVEL-2 (51069 NORAD) Tracking and Keplerian Element Data

This shows tracking and keplerian element data for the satellite.

Feedback or suggestion? Click here.




ElementValue
Catalog51069
NameTEVEL-2
Epoch Orbit4716
Epoch Day325.25139742
Epoch Year2022
RAAN29.6677
Inclination97.464
Eccentricity0.0007946
Argument of Perigee234.491
Mean Anonmoly197.4108
Mean Motion15.16889903
Decay Rate8.165E-05
L11 51069U 22002CP 22325.25139742 .00008165 00000+0 41747-3 0 9999
L22 51069 97.4640 29.6677 0007946 234.4910 197.4108 15.16889903 47167



Live tracking and technical data element details for TEVEL-2 (NORAD 51069). TEVEL-2 can be tracked NOW for your location showing map with azimuth and elevation plus other details from your city location.







IsCatalogInMostPopularTable: catalog: 51069, numindb: 39
Update: records affected: 1



GetName: 51069 TEVEL-2

Hit Count: updated at: Mon, 28 Nov 2022 04:54:41 GMT